Location: Pettit
(39.0209°N, 79.7181°W)
Time: 19:58:57
(UTC+00:00)

ACS3 Solar Sail - Pass Details

Date: 21 April 2026
Orbit: 894 x 947 km, 97.2° (Epoch: 12 May)

Event Time Altitude Azimuth Distance (km) Brightness Sun altitude
Rises 06:18:35 0° 13° (NNE) 3,550 5.7 -37.1°
Reaches altitude 10° 06:21:00 10° 15° (NNE) 2,611 4.8 -37.0°
Enters shadow 06:24:40 41° 24° (NNE) 1,319 2.8 -36.7°
